Find KUIPER-00488

NORAD ID: 68879 Int'l Des: 2026-095R Owner: kuiper Country: USA Constellation: kuiper operational
LEOCIRCULAR

Live-Position

3D-Globus wird geladen...

Über KUIPER-00488

Beschreibung wird geladen...

Nächste Überflüge

Passes for default location (London). Set your location on the main map for personalized predictions.

Höhenverlauf

Loading altitude history...

Zweizeiliger Elementsatz

1 68879U 26095R 26121.83336806 .00056287 00000-0 15921-2 0 9997
2 68879 51.8663 106.5679 0011378 137.2295 358.9287 15.35710953 1813
Epoch: 1. Mai 2026 • Age: 6 hours

Aktueller Status

Höhe 462.6 km
Geschwindigkeit 7.64 km/s
Subsatellitenpunkt 14.22°N, 129.22°W
Typ internet

Most Searched